Regional Weather Roundup
Issued by NWS Sterling, VA

Home | Current Version | Previous Version | Text Only | Print | Product List | Glossary Off
Versions: 1 2 3 4 5 6 7 8 9 10 11 12 13 14 15 16 17 18 19 20 21 22 23 24 25 26 27 28 29 30 31 32 33 34 35 36 37 38 39 40 41 42 43 44 45 46 47 48 49 50

000
ASUS41 KLWX 271910
RWRLWX

REGIONAL WEATHER ROUNDUP
NATIONAL WEATHER SERVICE BALTIMORE MD/WASHINGTON DC
300 PM EDT WED MAY 27 2015

Note: "FAIR" indicates few or no clouds below 12,000 feet
with no significant weather and/or obstructions to visibility.
 TC=TEMPERATURE CELSIUS

 * =Non NWS site. Station does not report precipitation (e.g. rain,
    snow, etc.), thunder, or fog.

DCZ001-MDZ009-015-VAZ040>042-051-053>054-272000-
WASHINGTON METRO

CITY           SKY/WX    TMP DP  RH WIND       PRES   REMARKS
WASHINGTON NAT PTSUNNY   89  68  49 S14       30.11F HX  93
DULLES         LGT RAIN  75  66  73 N15G23    30.14R
ANDREWS AFB    MOSUNNY   86  67  52 SW9       30.12F
FT BELVOIR     MOSUNNY   88  67  50 S10       30.12F HX  91
QUANTICO       PTSUNNY   85  67  54 SW10      30.12F
LEESBURG*      PTSUNNY   73  68  83 NW9G21    30.15S
MANASSAS*      CLOUDY    84  70  61 SW6       30.12F
GAITHERSBURG*  PTSUNNY   73  61  64 NW8       30.19R

$$

MDZ006>007-011-014-272000-
BALTIMORE METRO

CITY           SKY/WX    TMP DP  RH WIND       PRES   REMARKS
BWI AIRPORT    PTSUNNY   86  66  51 SW10      30.11F
MD SCIENCE CTR   N/A     85  70  60 MISG      30.11F
MARTIN STATE   MOSUNNY   84  73  70 SE18      30.13F HX  91
ANNAPOLIS      MOSUNNY   82  69  64 S13G23    30.12F

$$

MDZ012-015-019>023-272000-
MARYLAND EASTERN SHORE

CITY           SKY/WX    TMP DP  RH WIND       PRES   REMARKS
OCEAN CITY     SUNNY     73  64  73 S13G24    30.19F
SALISBURY      SUNNY     86  67  52 SW15G25   30.16F
EASTON*        MOSUNNY   86  72  62 SW14      30.17F HX  92

$$

MDZ017>025-272000-
SOUTHERN MARYLAND

CITY           SKY/WX    TMP DP  RH WIND       PRES   REMARKS
PATUXENT RIVER PTSUNNY   88  67  49 S14G25    30.13F HX  91
ST INIGOES     MOSUNNY   87  69  54 S14       30.13F HX  91
LEONARDTOWN*   NOT AVBL

$$

MDZ003>005-272000-
NORTH CENTRAL MARYLAND

CITY           SKY/WX    TMP DP  RH WIND       PRES   REMARKS
FREDERICK*     LGT RAIN  70  66  88 CALM      30.19F
HAGERSTOWN APT PTSUNNY   72  68  87 SE6       30.14F
WESTMINSTER*   NOT AVBL

$$

MDZ501>502-272000-
WESTERN MARYLAND

CITY           SKY/WX    TMP DP  RH WIND       PRES   REMARKS
OAKLAND*       NOT AVBL
CUMBERLAND*    NOT AVBL

$$

VAZ025>031-272000-
SHENANDOAH VALLEY

CITY           SKY/WX    TMP DP  RH WIND       PRES   REMARKS
WINCHESTER*    PTSUNNY   77  64  65 S7        30.15F
FRONT ROYAL*   FAIR      75  68  78 S3        30.14F
LURAY*         MOCLDY    81  66  61 E7        30.16F
NEW MARKET*    CLOUDY    78  66  66 S7        30.14F
STAUNTON*      MOSUNNY   85  61  44 SW10G16   30.18F
WAYNESBORO*    FAIR      82  66  59 S9        30.18F

$$

WVZ021-048>050-054>055-272000-
EASTERN WEST VIRGINIA PANHANDLE

CITY           SKY/WX    TMP DP  RH WIND       PRES   REMARKS
MARTINSBURG    CLOUDY    75  68  78 S3        30.15F
PETERSBURG*    MOSUNNY   82  61  49 CALM      30.14F

$$

VAZ036>039-050-272000-
CENTRAL FOOTHILLS

CITY           SKY/WX    TMP DP  RH WIND       PRES   REMARKS
CHARLOTTESVILL PTSUNNY   83  66  56 S12       30.15F
CULPEPER*      MOSUNNY   87  66  50 S8        30.13F
ORANGE*        PTSUNNY   86  68  54 S12G17    30.15F
GORDONSVILLE*  FAIR      83  68  60 SW8       30.14F
WARRENTON*     FAIR      88  69  54 S12       30.12F HX  92

$$

VAZ055>057-272000-
NORTH AND CENTRAL PIEDMONT

CITY           SKY/WX    TMP DP  RH WIND       PRES   REMARKS
FREDERICKSBRG* MOSUNNY   90  67  47 SW12      30.12F HX  93
STAFFORD*      PTSUNNY   87  64  45 SW8       30.17F

$$

NCZ024-NYZ072-PAZ021-071-VAZ022-071-272000-
OTHER REGIONAL OBSERVATIONS

CITY           SKY/WX    TMP DP  RH WIND       PRES   REMARKS
NEW YORK CITY  SUNNY     81  65  58 VRB7G18   30.14F
PHILADELPHIA   PTSUNNY   87  67  51 S17       30.11F HX  90
PITTSBURGH     PTSUNNY   79  59  50 SW13G22   30.11F
ROANOKE        MOSUNNY   86  60  41 S8        30.19F
RICHMOND       PTSUNNY   89  66  46 SW15      30.15F HX  91
RALEIGH        PTSUNNY   82  67  60 W7        30.20F

$$

ANZ530>537-272000-
MARINE OBSERVATIONS

STATION/POSITION TIME  TEMP    WIND        PRES
                       AIR SEA DIR/SP/G
                 (UTC) (F)     (DEG/KT/KT) (MB)
THOMAS PT LIGHT  1900   76 69  160/ 16/ 16 1020.3F
BALT KEY BRIDGE  1800   77     120/  9/ 11 1019.9F
COVE POINT       1800   71     190/ 14/ 16 1021.9F
LEWISETTA        1800   82 75              1020.8F
SOLOMONS ISLAND  1800      70                N/A
PINEY POINT      1800          210/ 12/ 13   N/A

$$



USA.gov is the U.S. government's official web portal to all federal, state and local government web resources and services.